Flag for Philippines Weather past 2 weeks in Mabalacat, Philippines

Now
75 °F

Mostly cloudy.


Feels Like: 74 °F
Forecast: 73 / 88 °F
Wind: 2 mph from Northeast

Location: Clarkfield Pampanga International Airport

Current Time: Sep 23, 2014 at 12:25:31 AM

Latest Report: Sep 23, 2014 at 12:00 AM


Visibility: N/A

Pressure: 29.89 "Hg

Humidity: 94%

Dew point: 73 °F

Location of MabalacatLocation

Historic Weather in Mabalacat — Graph

°F

Mabalacat temperature yesterday

Maximum temperature yesterday: 86 °F (at 12:00 PM)
Minimum temperature yesterday: 73 °F (at 6:00 AM)
Average temperature yesterday: 79 °F

Past Weeks' High & Low Weather Summary

 TemperatureHumidityPressure
High91 °F (Sep 17, 3:00 PM)100% (Sep 8, 10:00 PM)30.86 "Hg (Sep 8, 10:00 PM)
Low73 °F (Sep 8, 10:00 PM)55% (Sep 16, 2:00 PM)29.50 "Hg (Sep 15, 12:00 AM)
Average79 °F90%29.78 "Hg
* Reported Sep 7 11:00 PM — Sep 22 11:00 PM, Mabalacat, Weather by CustomWeather, © 2014

Note: Actual official high and low records may vary slightly from our data, if they occured in-between our weather recording intervals... More about our weather records

Advertising

Mabalacat weather history for previous 24 hours

 ConditionsComfort  
Time TempWeatherWind HumidityBarometerVisibility
11:00 PM
Sep 22
77 °FMostly cloudy.2 mph94%29.89 "HgN/A
10:00 PM77 °FMostly cloudy.2 mph94%29.89 "HgN/A
9:00 PM77 °FMostly cloudy.2 mph94%29.89 "HgN/A
8:00 PM77 °FMostly cloudy.2 mph94%29.89 "HgN/A
7:00 PM79 °FMostly cloudy.5 mph94%29.86 "HgN/A
6:00 PM81 °FPassing clouds.2 mph89%29.83 "HgN/A
5:00 PM79 °FPartly sunny.2 mph89%29.83 "HgN/A
4:00 PM77 °FBroken clouds.6 mph94%29.83 "HgN/A
3:00 PM81 °FRain showers. Broken clouds.6 mph89%29.80 "HgN/A
2:00 PM84 °FSprinkles. Broken clouds.6 mph79%29.80 "HgN/A
1:00 PM86 °FBroken clouds.3 mph70%29.83 "HgN/A
12:00 PM86 °FBroken clouds.3 mph70%29.86 "HgN/A
11:00 AM84 °FBroken clouds.5 mph79%29.89 "HgN/A
10:00 AM82 °FMore clouds than sun.3 mph84%29.92 "HgN/A
9:00 AM81 °FPartly sunny.3 mph89%29.89 "HgN/A
8:00 AM77 °FPartly sunny.2 mph89%29.89 "HgN/A
7:00 AM73 °FPartly sunny.1 mph100%29.86 "HgN/A
6:00 AM73 °FPartly sunny.5 mph100%29.86 "HgN/A
5:00 AM75 °FPassing clouds.3 mph94%29.86 "HgN/A
4:00 AM75 °FPartly cloudy.5 mph94%29.86 "HgN/A
Weather by CustomWeather, © 2014

See weather overviewHow to use our weather pages